Location: Riverside Cemetery
(38.3047°N, 99.7773°W)
Time: 06:22:29
(UTC+00:00)

Exosat Rocket - Pass Details

Date: 19 September 2020
Orbit: 761 x 2514 km, 72.3° (Epoch: 21 October)

Event Time Altitude Azimuth Distance (km) Brightness Sun altitude
Rises 02:51:49 0° 203° (SSW) 3,911 7.1 -25.6°
Reaches altitude 10° 02:54:43 10° 205° (SSW) 2,757 6.4 -26.2°
Maximum altitude 03:00:45 75° 290° (WNW) 862 3.7 -27.2°
Drops below altitude 10° 03:05:47 10° 17° (NNE) 2,310 6.1 -28.1°
Sets 03:08:02 0° 19° (NNE) 3,230 6.8 -28.5°
